Location: L�gaud
(45.7115°N, 1.7775°E)
Time: 20:59:30
(UTC+00:00)

ERBS - Pass Details

Date: 03 March 2021
Orbit: 408 x 412 km, 57.0° (Epoch: 13 April)

Event Time Altitude Azimuth Distance (km) Brightness Sun altitude
Rises 18:55:10 0° 264° (W) 2,349 7.9 -13.5°
Reaches altitude 10° 18:57:31 10° 279° (W) 1,487 6.5 -13.9°
Maximum altitude 19:00:16 23° 335° (NNW) 924 4.3 -14.3°
Drops below altitude 10° 19:03:01 10° 31° (NNE) 1,489 4.8 -14.8°
Enters shadow 19:03:04 10° 31° (NNE) 1,509 4.8 -14.8°
